Location: Auckland
(36.8670°S, 174.7670°E)
Time: 13:27:49
(UTC+12:00)

A-11 Canister half - Pass Details

Date: 26 July 2019
Orbit: 1526 x 1683 km, 47.3° (Epoch: 19 August)

Event Time Altitude Azimuth Distance (km) Brightness Sun altitude
Rises 11:48:15 0° 245° (WSW) 4,747 11.3 32.8°
Reaches altitude 10° 11:51:26 10° 240° (WSW) 3,781 10.8 33.0°
Maximum altitude 12:00:48 52° 164° (SSE) 1,940 9.6 33.2°
Drops below altitude 10° 12:10:27 10° 89° (E) 3,894 11.3 33.4°
Sets 12:13:47 0° 84° (E) 4,896 11.8 33.5°
